TimePDT,TemperatureF,Dew PointF,Humidity,Sea Level PressureIn,VisibilityMPH,Wind Direction,Wind SpeedMPH,Gust SpeedMPH,PrecipitationIn,Events,Conditions,WindDirDegrees,DateUTC
12:53 AM,55.9,41.0,57,29.99,10.0,Calm,Calm,-,N/A,,Clear,0,2012-10-28 07:53:00
1:53 AM,51.1,39.0,63,29.99,10.0,ESE,3.5,-,N/A,,Clear,110,2012-10-28 08:53:00
2:53 AM,48.9,39.0,69,29.99,10.0,Calm,Calm,-,N/A,,Clear,0,2012-10-28 09:53:00
3:53 AM,46.0,37.9,73,29.97,10.0,East,5.8,-,N/A,,Clear,80,2012-10-28 10:53:00
4:53 AM,46.0,37.9,73,29.98,10.0,North,3.5,-,N/A,,Clear,360,2012-10-28 11:53:00
5:53 AM,45.0,37.9,76,29.98,10.0,Calm,Calm,-,N/A,,Clear,0,2012-10-28 12:53:00
6:53 AM,44.1,37.9,79,29.99,10.0,NE,4.6,-,N/A,,Clear,40,2012-10-28 13:53:00
7:53 AM,44.1,37.9,79,30.00,10.0,NE,3.5,-,N/A,,Clear,50,2012-10-28 14:53:00
8:53 AM,53.1,41.0,64,30.01,10.0,Calm,Calm,-,N/A,,Clear,0,2012-10-28 15:53:00
10:53 AM,66.9,44.1,44,29.99,10.0,Calm,Calm,-,N/A,,Clear,0,2012-10-28 17:53:00
11:53 AM,72.0,45.0,38,29.99,10.0,Calm,Calm,-,N/A,,Clear,0,2012-10-28 18:53:00
12:53 PM,78.1,44.1,30,29.96,10.0,Calm,Calm,-,N/A,,Clear,0,2012-10-28 19:53:00
1:53 PM,81.0,41.0,24,29.93,10.0,Calm,Calm,-,N/A,,Clear,0,2012-10-28 20:53:00
2:53 PM,82.9,37.9,20,29.91,10.0,Variable,3.5,-,N/A,,Clear,0,2012-10-28 21:53:00
3:53 PM,86.0,34.0,16,29.91,10.0,West,6.9,-,N/A,,Clear,260,2012-10-28 22:53:00
4:53 PM,84.9,27.0,12,29.92,10.0,WSW,9.2,-,N/A,,Clear,240,2012-10-28 23:53:00
5:53 PM,80.1,30.9,17,29.93,10.0,SSW,8.1,-,N/A,,Clear,210,2012-10-29 00:53:00
6:53 PM,73.0,30.0,20,29.95,10.0,SSW,5.8,-,N/A,,Clear,200,2012-10-29 01:53:00
7:53 PM,64.0,32.0,30,29.97,10.0,ENE,4.6,-,N/A,,Clear,60,2012-10-29 02:53:00
8:53 PM,62.1,34.0,35,29.99,10.0,Calm,Calm,-,N/A,,Clear,0,2012-10-29 03:53:00
9:53 PM,57.0,39.9,53,30.01,10.0,South,3.5,-,N/A,,Clear,190,2012-10-29 04:53:00
10:53 PM,53.1,37.0,55,30.03,10.0,Calm,Calm,-,N/A,,Clear,0,2012-10-29 05:53:00
11:53 PM,50.0,35.1,57,30.04,10.0,Calm,Calm,-,N/A,,Clear,0,2012-10-29 06:53:00